FW6820 Weather Reports


Display with metric or nautical units.
time (UTC)temp
F
wind
direction
speed
MPH
gust
MPH
rain 1hr
in
rain 24hr
in
rain mn
in
humidity
%
barometer
mb
20260906020050 77 241 12.0 23.0 0.00 0.00 0.00 74 1013.4
20260906014552 79 236 17.0 28.0 0.00 0.00 0.00 72 1013.2
20260906013045 86 235 11.0 19.0 0.00 0.00 0.00 67 1012.4
20260906011551 91 138 10.0 19.0 0.00 0.00 0.00 64 1011.4
20260906010048 91 133 14.0 21.0 0.00 0.00 0.00 62 1010.3
20260906004543 92 132 11.0 23.0 0.00 0.00 0.00 60 1010.0
20260906003108 93 128 11.0 20.0 0.00 0.00 0.00 58 1009.6
20260906001549 94 174 11.0 23.0 0.00 0.00 0.00 57 1009.3
20260906000045 95 134 11.0 20.0 0.00 0.00 0.00 54 1008.8
20260905234544 96 158 11.0 20.0 0.00 0.00 0.00 51 1008.7
20260905233053 97 115 11.0 19.0 0.00 0.00 0.00 50 1008.3
20260905231548 97 149 11.0 20.0 0.00 0.00 0.00 49 1008.1
20260905230043 98 146 10.0 24.0 0.00 0.00 0.00 48 1008.0
20260905224551 99 152 9.0 17.0 0.00 0.00 0.00 46 1008.1
20260905223049 99 125 10.0 17.0 0.00 0.00 0.00 45 1008.1
20260905221546 100 122 11.0 27.0 0.00 0.00 0.00 45 1007.8
20260905220045 101 138 11.0 19.0 0.00 0.00 0.00 42 1007.5
20260905214549 101 121 11.0 21.0 0.00 0.00 0.00 42 1007.7
20260905213047 101 95 5.0 17.0 0.00 0.00 0.00 41 1007.9
20260905211544 101 140 9.0 14.0 0.00 0.00 0.00 41 1008.2
20260905210050 100 115 8.0 21.0 0.00 0.00 0.00 44 1008.5
20260905204558 100 104 8.0 15.0 0.00 0.00 0.00 45 1008.7
20260905203054 100 145 10.0 17.0 0.00 0.00 0.00 46 1009.1
20260905201552 99 114 8.0 20.0 0.00 0.00 0.00 47 1009.3
20260905200056 99 98 5.0 15.0 0.00 0.00 0.00 47 1009.5
20260905194549 99 143 5.0 17.0 0.00 0.00 0.00 48 1009.8
20260905193107 99 130 8.0 14.0 0.00 0.00 0.00 48 1010.0
20260905191558 98 130 4.0 14.0 0.00 0.00 0.00 49 1010.2
20260905190052 99 157 7.0 17.0 0.00 0.00 0.00 49 1010.6
20260905184553 98 121 6.0 14.0 0.00 0.00 0.00 51 1010.8
20260905183045 97 100 7.0 17.0 0.00 0.00 0.00 52 1011.0
20260905181551 96 150 8.0 20.0 0.00 0.00 0.00 54 1011.4
20260905180048 95 163 7.0 19.0 0.00 0.00 0.00 55 1011.6
20260905174545 95 145 12.0 19.0 0.00 0.00 0.00 58 1011.8
20260905173042 94 129 8.0 20.0 0.00 0.00 0.00 58 1011.9
20260905171550 94 109 6.0 15.0 0.00 0.00 0.00 61 1012.2
20260905170056 92 155 9.0 17.0 0.00 0.00 0.00 63 1012.3
20260905164545 92 173 8.0 17.0 0.00 0.00 0.00 63 1012.3
20260905163043 92 123 7.0 17.0 0.00 0.00 0.00 64 1012.5
20260905161551 91 154 8.0 17.0 0.00 0.00 0.00 67 1012.5
20260905160051 90 159 8.0 17.0 0.00 0.00 0.00 69 1012.5
20260905154606 89 115 10.0 20.0 0.00 0.00 0.00 70 1012.5
20260905153043 88 142 9.0 15.0 0.00 0.00 0.00 72 1012.8
20260905151552 87 148 9.0 17.0 0.00 0.00 0.00 74 1012.9
20260905150055 86 159 9.0 15.0 0.00 0.00 0.00 77 1012.9
20260905144548 86 123 9.0 15.0 0.00 0.00 0.00 78 1013.0
20260905143056 85 143 9.0 16.0 0.00 0.00 0.00 79 1013.0
20260905141549 84 150 10.0 15.0 0.00 0.00 0.00 81 1012.8
20260905140050 84 144 5.0 14.0 0.00 0.00 0.00 83 1012.8
20260905134544 83 166 7.0 12.0 0.00 0.00 0.00 84 1012.5
20260905133042 82 156 8.0 12.0 0.00 0.00 0.00 85 1012.2
20260905131551 82 126 8.0 13.0 0.00 0.00 0.00 85 1012.0
20260905130051 82 134 5.0 10.0 0.00 0.00 0.00 85 1011.7
20260905124551 82 128 5.0 10.0 0.00 0.00 0.00 85 1011.6
20260905123043 82 131 3.0 10.0 0.00 0.00 0.00 85 1011.3
20260905121549 82 131 5.0 12.0 0.00 0.00 0.00 85 1011.2
20260905120051 82 140 6.0 11.0 0.00 0.00 0.00 84 1011.0
20260905114547 82 146 6.0 11.0 0.00 0.00 0.00 84 1011.0
20260905113045 82 140 6.0 10.0 0.00 0.00 0.00 84 1011.0
20260905111555 83 155 8.0 14.0 0.00 0.00 0.00 83 1011.0
20260905110049 83 153 8.0 14.0 0.00 0.00 0.00 83 1011.0
20260905104549 83 155 10.0 16.0 0.00 0.00 0.00 83 1011.0
20260905103044 83 154 8.0 15.0 0.00 0.00 0.00 83 1011.1
20260905101553 83 139 5.0 12.0 0.00 0.00 0.00 83 1011.1
20260905100104 83 131 6.0 12.0 0.00 0.00 0.00 83 1011.2
20260905094547 83 150 7.0 11.0 0.00 0.00 0.00 83 1011.2
20260905093046 83 128 7.0 12.0 0.00 0.00 0.00 83 1011.3
20260905091600 83 134 6.0 12.0 0.00 0.00 0.00 83 1011.2
20260905090043 83 141 7.0 11.0 0.00 0.00 0.00 83 1011.3
20260905084552 83 148 6.0 10.0 0.00 0.00 0.00 83 1011.3
20260905083044 84 143 6.0 10.0 0.00 0.00 0.00 82 1011.4
20260905081542 84 137 5.0 12.0 0.00 0.00 0.00 82 1011.5
20260905080050 84 132 7.0 12.0 0.00 0.00 0.00 82 1011.6
20260905074541 84 131 7.0 11.0 0.00 0.00 0.00 81 1011.7
20260905073044 84 146 5.0 11.0 0.00 0.00 0.00 82 1011.8
20260905071542 84 147 6.0 11.0 0.00 0.00 0.00 82 1012.0
20260905070044 84 148 6.0 13.0 0.00 0.00 0.00 82 1012.3
20260905064547 84 131 7.0 14.0 0.00 0.00 0.00 82 1012.1
20260905063058 85 126 6.0 13.0 0.00 0.00 0.00 82 1012.1
20260905061557 85 165 8.0 14.0 0.00 0.00 0.00 81 1012.0
20260905060047 85 134 8.0 16.0 0.00 0.00 0.00 81 1011.9
20260905054542 85 144 9.0 16.0 0.00 0.00 0.00 80 1011.9
20260905053057 85 130 10.0 16.0 0.00 0.00 0.00 79 1011.9
20260905051547 85 139 10.0 16.0 0.00 0.00 0.00 79 1012.2
20260905050043 85 124 10.0 15.0 0.00 0.00 0.00 79 1012.1
20260905044553 85 148 11.0 18.0 0.00 0.00 0.00 79 1012.1
20260905043050 85 360 8.0 14.0 0.00 0.00 0.00 78 1012.2
20260905041551 86 140 7.0 13.0 0.00 0.00 0.00 77 1012.2
20260905040042 86 112 7.0 12.0 0.00 0.00 0.00 77 1012.5
20260905034552 86 101 6.0 16.0 0.00 0.00 0.00 76 1012.2
20260905033046 86 147 8.0 19.0 0.00 0.00 0.00 75 1012.2
20260905031543 87 114 10.0 18.0 0.00 0.00 0.00 74 1012.1
20260905024543 87 138 10.0 18.0 0.00 0.00 0.00 73 1012.0
20260905023044 87 128 10.0 18.0 0.00 0.00 0.00 72 1011.8
20260905021543 88 124 12.0 25.0 0.00 0.00 0.00 70 1011.6